Year,Month,Day,Hour,Minute,Value (Times are PST for temperature in C)
2018,09,19,00,00,10.90
2018,09,19,00,01,10.90
2018,09,19,00,02,10.90
2018,09,19,00,03,10.90
2018,09,19,00,04,11.00
2018,09,19,00,05,11.00
2018,09,19,00,06,11.00
2018,09,19,00,07,11.10
2018,09,19,00,08,11.10
2018,09,19,00,09,11.10
2018,09,19,00,10,11.10
2018,09,19,00,11,11.10
2018,09,19,00,12,11.20
2018,09,19,00,13,11.20
2018,09,19,00,14,11.20
2018,09,19,00,15,11.20
2018,09,19,00,16,11.20
2018,09,19,00,17,11.20
2018,09,19,00,18,11.20
2018,09,19,00,19,11.20
2018,09,19,00,20,11.20
2018,09,19,00,21,11.20
2018,09,19,00,22,11.10
2018,09,19,00,23,11.10
2018,09,19,00,24,11.10
2018,09,19,00,25,11.10
2018,09,19,00,26,11.10
2018,09,19,00,27,11.10
2018,09,19,00,28,11.00
2018,09,19,00,29,11.00
2018,09,19,00,30,11.00
2018,09,19,00,31,11.00
2018,09,19,00,32,10.90
2018,09,19,00,33,10.90
2018,09,19,00,34,10.90
2018,09,19,00,35,10.90
2018,09,19,00,36,10.80
2018,09,19,00,37,10.80
2018,09,19,00,38,10.80
2018,09,19,00,39,10.80
2018,09,19,00,40,10.80
2018,09,19,00,41,10.70
2018,09,19,00,42,10.70
2018,09,19,00,43,10.70
2018,09,19,00,44,10.60
2018,09,19,00,45,10.60
2018,09,19,00,46,10.60
2018,09,19,00,47,10.50
2018,09,19,00,48,10.50
2018,09,19,00,49,10.40
2018,09,19,00,50,10.40
2018,09,19,00,51,10.40
2018,09,19,00,52,10.40
2018,09,19,00,53,10.40
2018,09,19,00,54,10.40
2018,09,19,00,55,10.30
2018,09,19,00,56,10.30
2018,09,19,00,57,10.30
2018,09,19,00,58,10.30
2018,09,19,00,59,10.30
2018,09,19,01,00,10.30
2018,09,19,01,01,10.30
2018,09,19,01,02,10.30
2018,09,19,01,03,10.30
2018,09,19,01,04,10.30
2018,09,19,01,05,10.20
2018,09,19,01,06,10.20
2018,09,19,01,07,10.20
2018,09,19,01,08,10.20
2018,09,19,01,09,10.20
2018,09,19,01,10,10.20
2018,09,19,01,11,10.20
2018,09,19,01,12,10.10
2018,09,19,01,13,10.10
2018,09,19,01,14,10.10
2018,09,19,01,15,10.10
2018,09,19,01,16,10.10
2018,09,19,01,17,10.10
2018,09,19,01,18,10.10
2018,09,19,01,19,10.00
2018,09,19,01,20,10.00
2018,09,19,01,21,10.00
2018,09,19,01,22,9.90
2018,09,19,01,23,9.90
2018,09,19,01,24,9.90
2018,09,19,01,25,9.80
2018,09,19,01,26,9.80
2018,09,19,01,27,9.80
2018,09,19,01,28,9.80
2018,09,19,01,29,9.80
2018,09,19,01,30,9.80
2018,09,19,01,31,9.80
2018,09,19,01,32,9.80
2018,09,19,01,33,9.80
2018,09,19,01,34,9.80
2018,09,19,01,35,9.80
2018,09,19,01,36,9.80
2018,09,19,01,37,9.80
2018,09,19,01,38,9.80
2018,09,19,01,39,9.80
2018,09,19,01,40,9.90
2018,09,19,01,41,9.90
2018,09,19,01,42,9.90
2018,09,19,01,43,9.90
2018,09,19,01,44,9.90
2018,09,19,01,45,9.90
2018,09,19,01,46,9.90
2018,09,19,01,47,9.90
2018,09,19,01,48,10.00
2018,09,19,01,49,10.00
2018,09,19,01,50,10.00
2018,09,19,01,51,10.00
2018,09,19,01,52,10.00
2018,09,19,01,53,10.00
2018,09,19,01,54,10.00
2018,09,19,01,55,10.00
2018,09,19,01,56,10.00
2018,09,19,01,57,10.00
2018,09,19,01,58,10.00
2018,09,19,01,59,10.00
2018,09,19,02,00,10.00
2018,09,19,02,01,10.00
2018,09,19,02,02,10.00
2018,09,19,02,03,10.00
2018,09,19,02,04,10.00
2018,09,19,02,05,10.00
2018,09,19,02,06,9.90
2018,09,19,02,07,9.90
2018,09,19,02,08,10.00
2018,09,19,02,09,10.00
2018,09,19,02,10,10.00
2018,09,19,02,11,10.10
2018,09,19,02,12,10.10
2018,09,19,02,13,10.10
2018,09,19,02,14,10.10
2018,09,19,02,15,10.10
2018,09,19,02,16,10.10
2018,09,19,02,17,10.10
2018,09,19,02,18,10.10
2018,09,19,02,19,10.10
2018,09,19,02,20,10.10
2018,09,19,02,21,10.00
2018,09,19,02,22,10.00
2018,09,19,02,23,10.00
2018,09,19,02,24,10.00
2018,09,19,02,25,9.90
2018,09,19,02,26,9.90
2018,09,19,02,27,9.90
2018,09,19,02,28,9.90
2018,09,19,02,29,9.90
2018,09,19,02,30,9.90
2018,09,19,02,31,9.80
2018,09,19,02,32,9.80
2018,09,19,02,33,9.80
2018,09,19,02,34,9.80
2018,09,19,02,35,9.80
2018,09,19,02,36,9.80
2018,09,19,02,37,9.80
2018,09,19,02,38,9.70
2018,09,19,02,39,9.70
2018,09,19,02,40,9.70
2018,09,19,02,41,9.70
2018,09,19,02,42,9.70
2018,09,19,02,43,9.60
2018,09,19,02,44,9.60
2018,09,19,02,45,9.60
2018,09,19,02,46,9.60
2018,09,19,02,47,9.50
2018,09,19,02,48,9.50
2018,09,19,02,49,9.50
2018,09,19,02,50,9.40
2018,09,19,02,51,9.40
2018,09,19,02,52,9.40
2018,09,19,02,53,9.40
2018,09,19,02,54,9.40
2018,09,19,02,55,9.40
2018,09,19,02,56,9.40
2018,09,19,02,57,9.30
2018,09,19,02,58,9.30
2018,09,19,02,59,9.30
2018,09,19,03,00,9.30
2018,09,19,03,01,9.30
2018,09,19,03,02,9.30
2018,09,19,03,03,9.30
2018,09,19,03,04,9.30
2018,09,19,03,05,9.30
2018,09,19,03,06,9.30
2018,09,19,03,07,9.30
2018,09,19,03,08,9.30
2018,09,19,03,09,9.30
2018,09,19,03,10,9.30
2018,09,19,03,11,9.30
2018,09,19,03,12,9.30
2018,09,19,03,13,9.30
2018,09,19,03,14,9.30
2018,09,19,03,15,9.30
2018,09,19,03,16,9.30
2018,09,19,03,17,9.20
2018,09,19,03,18,9.20
2018,09,19,03,19,9.20
2018,09,19,03,20,9.20
2018,09,19,03,21,9.20
2018,09,19,03,22,9.20
2018,09,19,03,23,9.20
2018,09,19,03,24,9.20
2018,09,19,03,25,9.20
2018,09,19,03,26,9.10
2018,09,19,03,27,9.10
2018,09,19,03,28,9.10
2018,09,19,03,29,9.10
2018,09,19,03,30,9.10
2018,09,19,03,31,9.10
2018,09,19,03,32,9.10
2018,09,19,03,33,9.10
2018,09,19,03,34,9.10
2018,09,19,03,35,9.10
2018,09,19,03,36,9.10
2018,09,19,03,37,9.00
2018,09,19,03,38,9.00
2018,09,19,03,39,9.00
2018,09,19,03,40,9.00
2018,09,19,03,41,9.00
2018,09,19,03,42,8.90
2018,09,19,03,43,8.90
2018,09,19,03,44,8.90
2018,09,19,03,45,8.90
2018,09,19,03,46,8.90
2018,09,19,03,47,8.80
2018,09,19,03,48,8.80
2018,09,19,03,49,8.80
2018,09,19,03,50,8.80
2018,09,19,03,51,8.80
2018,09,19,03,52,8.80
2018,09,19,03,53,8.80
2018,09,19,03,54,8.80
2018,09,19,03,55,8.80
2018,09,19,03,56,8.80
2018,09,19,03,57,8.80
2018,09,19,03,58,8.80
2018,09,19,03,59,8.80
2018,09,19,04,00,8.70
2018,09,19,04,01,8.70
2018,09,19,04,02,8.80
2018,09,19,04,03,8.80
2018,09,19,04,04,8.80
2018,09,19,04,05,8.90
2018,09,19,04,06,8.90
2018,09,19,04,07,8.90
2018,09,19,04,08,8.90
2018,09,19,04,09,9.00
2018,09,19,04,10,9.00
2018,09,19,04,11,9.00
2018,09,19,04,12,9.00
2018,09,19,04,13,9.00
2018,09,19,04,14,9.10
2018,09,19,04,15,9.10
2018,09,19,04,16,9.10
2018,09,19,04,17,9.10
2018,09,19,04,18,9.10
2018,09,19,04,19,9.10
2018,09,19,04,20,9.10
2018,09,19,04,21,9.10
2018,09,19,04,22,9.00
2018,09,19,04,23,9.00
2018,09,19,04,24,8.90
2018,09,19,04,25,8.90
2018,09,19,04,26,8.80
2018,09,19,04,27,8.80
2018,09,19,04,28,8.80
2018,09,19,04,29,8.80
2018,09,19,04,30,8.70
2018,09,19,04,31,8.70
2018,09,19,04,32,8.70
2018,09,19,04,33,8.70
2018,09,19,04,34,8.70
2018,09,19,04,35,8.70
2018,09,19,04,36,8.70
2018,09,19,04,37,8.70
2018,09,19,04,38,8.70
2018,09,19,04,39,8.70
2018,09,19,04,40,8.70
2018,09,19,04,41,8.70
2018,09,19,04,42,8.70
2018,09,19,04,43,8.70
2018,09,19,04,44,8.70
2018,09,19,04,45,8.70
2018,09,19,04,46,8.60
2018,09,19,04,47,8.60
2018,09,19,04,48,8.60
2018,09,19,04,49,8.60
2018,09,19,04,50,8.50
2018,09,19,04,51,8.50
2018,09,19,04,52,8.40
2018,09,19,04,53,8.40
2018,09,19,04,54,8.30
2018,09,19,04,55,8.30
2018,09,19,04,56,8.30
2018,09,19,04,57,8.30
2018,09,19,04,58,8.30
2018,09,19,04,59,8.30
2018,09,19,05,00,8.30
2018,09,19,05,01,8.30
2018,09,19,05,02,8.30
2018,09,19,05,03,8.30
2018,09,19,05,04,8.40
2018,09,19,05,05,8.40
2018,09,19,05,06,8.40
2018,09,19,05,07,8.40
2018,09,19,05,08,8.40
2018,09,19,05,09,8.40
2018,09,19,05,10,8.40
2018,09,19,05,11,8.40
2018,09,19,05,12,8.40
2018,09,19,05,13,8.50
2018,09,19,05,14,8.50
2018,09,19,05,15,8.50
2018,09,19,05,16,8.50
2018,09,19,05,17,8.50
2018,09,19,05,18,8.50
2018,09,19,05,19,8.60
2018,09,19,05,20,8.60
2018,09,19,05,21,8.50
2018,09,19,05,22,8.50
2018,09,19,05,23,8.40
2018,09,19,05,24,8.30
2018,09,19,05,25,8.30
2018,09,19,05,26,8.20
2018,09,19,05,27,8.20
2018,09,19,05,28,8.20
2018,09,19,05,29,8.20
2018,09,19,05,30,8.20
2018,09,19,05,31,8.30
2018,09,19,05,32,8.30
2018,09,19,05,33,8.30
2018,09,19,05,34,8.30
2018,09,19,05,35,8.30
2018,09,19,05,36,8.40
2018,09,19,05,37,8.40
2018,09,19,05,38,8.40
2018,09,19,05,39,8.30
2018,09,19,05,40,8.30
2018,09,19,05,41,8.40
2018,09,19,05,42,8.40
2018,09,19,05,43,8.40
2018,09,19,05,44,8.40
2018,09,19,05,45,8.30
2018,09,19,05,46,8.40
2018,09,19,05,47,8.30
2018,09,19,05,48,8.30
2018,09,19,05,49,8.40
2018,09,19,05,50,8.30
2018,09,19,05,51,8.40
2018,09,19,05,52,8.40
2018,09,19,05,53,8.40
2018,09,19,05,54,8.40
2018,09,19,05,55,8.40
2018,09,19,05,56,8.40
2018,09,19,05,57,8.40
2018,09,19,05,58,8.40
2018,09,19,05,59,8.40
2018,09,19,06,00,8.40
2018,09,19,06,01,8.30
2018,09,19,06,02,8.30
2018,09,19,06,03,8.30
2018,09,19,06,04,8.30
2018,09,19,06,05,8.30
2018,09,19,06,06,8.30
2018,09,19,06,07,8.30
2018,09,19,06,08,8.30
2018,09,19,06,09,8.30
2018,09,19,06,10,8.30
2018,09,19,06,11,8.30
2018,09,19,06,12,8.30
2018,09,19,06,13,8.20
2018,09,19,06,14,8.20
2018,09,19,06,15,8.20
2018,09,19,06,16,8.20
2018,09,19,06,17,8.20
2018,09,19,06,18,8.20
2018,09,19,06,19,8.20
2018,09,19,06,20,8.20
2018,09,19,06,21,8.20
2018,09,19,06,22,8.20
2018,09,19,06,23,8.20
2018,09,19,06,24,8.20
2018,09,19,06,25,8.10
2018,09,19,06,26,8.10
2018,09,19,06,27,8.10
2018,09,19,06,28,8.10
2018,09,19,06,29,8.10
2018,09,19,06,30,8.10
2018,09,19,06,31,8.00
2018,09,19,06,32,8.00
2018,09,19,06,33,8.00
2018,09,19,06,34,8.00
2018,09,19,06,35,8.10
2018,09,19,06,36,8.10
2018,09,19,06,37,8.10
2018,09,19,06,38,8.10
2018,09,19,06,39,8.00
2018,09,19,06,40,8.00
2018,09,19,06,41,8.00
2018,09,19,06,42,8.00
2018,09,19,06,43,7.90
2018,09,19,06,44,7.90
2018,09,19,06,45,7.90
2018,09,19,06,46,7.80
2018,09,19,06,47,7.80
2018,09,19,06,48,7.80
2018,09,19,06,49,7.80
2018,09,19,06,50,7.80
2018,09,19,06,51,7.80
2018,09,19,06,52,7.80
2018,09,19,06,53,7.90
2018,09,19,06,54,7.90
2018,09,19,06,55,7.90
2018,09,19,06,56,7.90
2018,09,19,06,57,7.90
2018,09,19,06,58,8.00
2018,09,19,06,59,8.00
2018,09,19,07,00,8.00
2018,09,19,07,01,8.10
2018,09,19,07,02,8.10
2018,09,19,07,03,8.10
2018,09,19,07,04,8.10
2018,09,19,07,05,8.20
2018,09,19,07,06,8.20
2018,09,19,07,07,8.20
2018,09,19,07,08,8.20
2018,09,19,07,09,8.20
2018,09,19,07,10,8.20
2018,09,19,07,11,8.30
2018,09,19,07,12,8.30
2018,09,19,07,13,8.30
2018,09,19,07,14,8.30
2018,09,19,07,15,8.20
2018,09,19,07,16,8.20
2018,09,19,07,17,8.20
2018,09,19,07,18,8.20
2018,09,19,07,19,8.20
2018,09,19,07,20,8.20
2018,09,19,07,21,8.20
2018,09,19,07,22,8.10
2018,09,19,07,23,8.10
2018,09,19,07,24,8.10
2018,09,19,07,25,8.10
2018,09,19,07,26,8.10
2018,09,19,07,27,8.00
2018,09,19,07,28,8.00
2018,09,19,07,29,8.00
2018,09,19,07,30,8.00
2018,09,19,07,31,7.90
2018,09,19,07,32,7.90
2018,09,19,07,33,7.90
2018,09,19,07,34,7.90
2018,09,19,07,35,7.90
2018,09,19,07,36,7.90
2018,09,19,07,37,7.80
2018,09,19,07,38,7.90
2018,09,19,07,39,7.80
2018,09,19,07,40,7.90
2018,09,19,07,41,7.90
2018,09,19,07,42,7.90
2018,09,19,07,43,7.90
2018,09,19,07,44,8.00
2018,09,19,07,45,8.00
2018,09,19,07,46,8.10
2018,09,19,07,47,8.10
2018,09,19,07,48,8.10
2018,09,19,07,49,8.20
2018,09,19,07,50,8.20
2018,09,19,07,51,8.20
2018,09,19,07,52,8.20
2018,09,19,07,53,8.30
2018,09,19,07,54,8.30
2018,09,19,07,55,8.30
2018,09,19,07,56,8.40
2018,09,19,07,57,8.40
2018,09,19,07,58,8.40
2018,09,19,07,59,8.50
2018,09,19,08,00,8.60
2018,09,19,08,01,8.60
2018,09,19,08,02,8.60
2018,09,19,08,03,8.70
2018,09,19,08,04,8.70
2018,09,19,08,05,8.80
2018,09,19,08,06,8.80
2018,09,19,08,07,8.90
2018,09,19,08,08,8.90
2018,09,19,08,09,8.90
2018,09,19,08,10,9.00
2018,09,19,08,11,9.00
2018,09,19,08,12,9.10
2018,09,19,08,13,9.10
2018,09,19,08,14,9.20
2018,09,19,08,15,9.20
2018,09,19,08,16,9.20
2018,09,19,08,17,9.30
2018,09,19,08,18,9.30
2018,09,19,08,19,9.40
2018,09,19,08,20,9.50
2018,09,19,08,21,9.50
2018,09,19,08,22,9.60
2018,09,19,08,23,9.70
2018,09,19,08,24,9.70
2018,09,19,08,25,9.80
2018,09,19,08,26,9.80
2018,09,19,08,27,9.90
2018,09,19,08,28,10.00
2018,09,19,08,29,10.10
2018,09,19,08,30,10.20
2018,09,19,08,31,10.30
2018,09,19,08,32,10.40
2018,09,19,08,33,10.50
2018,09,19,08,34,10.70
2018,09,19,08,35,10.80
2018,09,19,08,36,10.90
2018,09,19,08,37,11.00
2018,09,19,08,38,11.00
2018,09,19,08,39,11.10
2018,09,19,08,40,11.10
2018,09,19,08,41,11.20
2018,09,19,08,42,11.30
2018,09,19,08,43,11.40
2018,09,19,08,44,11.50
2018,09,19,08,45,11.60
2018,09,19,08,46,11.60
2018,09,19,08,47,11.70
2018,09,19,08,48,11.70
2018,09,19,08,49,11.80
2018,09,19,08,50,11.80
2018,09,19,08,51,11.90
2018,09,19,08,52,11.90
2018,09,19,08,53,12.00
2018,09,19,08,54,12.10
2018,09,19,08,55,12.20
2018,09,19,08,56,12.30
2018,09,19,08,57,12.40
2018,09,19,08,58,12.50
2018,09,19,08,59,12.60
2018,09,19,09,00,12.60
2018,09,19,09,01,12.70
2018,09,19,09,02,12.70
2018,09,19,09,03,12.80
2018,09,19,09,04,12.80
2018,09,19,09,05,12.80
2018,09,19,09,06,12.90
2018,09,19,09,07,12.90
2018,09,19,09,08,12.90
2018,09,19,09,09,12.90
2018,09,19,09,10,13.00
2018,09,19,09,11,13.00
2018,09,19,09,12,13.00
2018,09,19,09,13,13.00
2018,09,19,09,14,13.00
2018,09,19,09,15,12.90
2018,09,19,09,16,12.90
2018,09,19,09,17,12.80
2018,09,19,09,18,12.70
2018,09,19,09,19,12.70
2018,09,19,09,20,12.60
2018,09,19,09,21,12.60
2018,09,19,09,22,12.60
2018,09,19,09,23,12.60
2018,09,19,09,24,12.60
2018,09,19,09,25,12.60
2018,09,19,09,26,12.60
2018,09,19,09,27,12.70
2018,09,19,09,28,12.70
2018,09,19,09,29,12.60
2018,09,19,09,30,12.60
2018,09,19,09,31,12.60
2018,09,19,09,32,12.60
2018,09,19,09,33,12.60
2018,09,19,09,34,12.60
2018,09,19,09,35,12.70
2018,09,19,09,36,12.70
2018,09,19,09,37,12.80
2018,09,19,09,38,12.90
2018,09,19,09,39,12.90
2018,09,19,09,40,12.90
2018,09,19,09,41,12.80
2018,09,19,09,42,12.80
2018,09,19,09,43,12.80
2018,09,19,09,44,12.70
2018,09,19,09,45,12.70
2018,09,19,09,46,12.70
2018,09,19,09,47,12.60
2018,09,19,09,48,12.60
2018,09,19,09,49,12.60
2018,09,19,09,50,12.60
2018,09,19,09,51,12.60
2018,09,19,09,52,12.60
2018,09,19,09,53,12.50
2018,09,19,09,54,12.50
2018,09,19,09,55,12.40
2018,09,19,09,56,12.30
2018,09,19,09,57,12.30
2018,09,19,09,58,12.20
2018,09,19,09,59,12.20
2018,09,19,10,00,12.20
2018,09,19,10,01,12.10
2018,09,19,10,02,12.10
2018,09,19,10,03,12.10
2018,09,19,10,04,12.10
2018,09,19,10,05,12.10
2018,09,19,10,06,12.00
2018,09,19,10,07,12.00
2018,09,19,10,08,11.90
2018,09,19,10,09,11.90
2018,09,19,10,10,11.90
2018,09,19,10,11,12.00
2018,09,19,10,12,12.00
2018,09,19,10,13,12.00
2018,09,19,10,14,12.10
2018,09,19,10,15,12.20
2018,09,19,10,16,12.30
2018,09,19,10,17,12.30
2018,09,19,10,18,12.30
2018,09,19,10,19,12.40
2018,09,19,10,20,12.40
2018,09,19,10,21,12.40
2018,09,19,10,22,12.50
2018,09,19,10,23,12.50
2018,09,19,10,24,12.40
2018,09,19,10,25,12.40
2018,09,19,10,26,12.30
2018,09,19,10,27,12.30
2018,09,19,10,28,12.30
2018,09,19,10,29,12.30
2018,09,19,10,30,12.30
2018,09,19,10,31,12.30
2018,09,19,10,32,12.30
2018,09,19,10,33,12.30
2018,09,19,10,34,12.30
2018,09,19,10,35,12.30
2018,09,19,10,36,12.30
2018,09,19,10,37,12.30
2018,09,19,10,38,12.20
2018,09,19,10,39,12.20
2018,09,19,10,40,12.30
2018,09,19,10,41,12.30
2018,09,19,10,42,12.40
2018,09,19,10,43,12.50
2018,09,19,10,44,12.60
2018,09,19,10,45,12.70
2018,09,19,10,46,12.80
2018,09,19,10,47,12.80
2018,09,19,10,48,12.80
2018,09,19,10,49,12.80
2018,09,19,10,50,12.80
2018,09,19,10,51,12.70
2018,09,19,10,52,12.70
2018,09,19,10,53,12.60
2018,09,19,10,54,12.50
2018,09,19,10,55,12.40
2018,09,19,10,56,12.30
2018,09,19,10,57,12.30
2018,09,19,10,58,12.30
2018,09,19,10,59,12.30
2018,09,19,11,00,12.30
2018,09,19,11,01,12.30
2018,09,19,11,02,12.30
2018,09,19,11,03,12.30
2018,09,19,11,04,12.30
2018,09,19,11,05,12.40
2018,09,19,11,06,12.40
2018,09,19,11,07,12.40
2018,09,19,11,08,12.40
2018,09,19,11,09,12.50
2018,09,19,11,10,12.60
2018,09,19,11,11,12.60
2018,09,19,11,12,12.70
2018,09,19,11,13,12.70
2018,09,19,11,14,12.80
2018,09,19,11,15,12.80
2018,09,19,11,16,12.90
2018,09,19,11,17,13.00
2018,09,19,11,18,13.00
2018,09,19,11,19,13.00
2018,09,19,11,20,13.00
2018,09,19,11,21,13.00
2018,09,19,11,22,13.00
2018,09,19,11,23,12.90
2018,09,19,11,24,12.90
2018,09,19,11,25,12.90
2018,09,19,11,26,12.90
2018,09,19,11,27,12.90
2018,09,19,11,28,12.90
2018,09,19,11,29,12.80
2018,09,19,11,30,12.80
2018,09,19,11,31,12.80
2018,09,19,11,32,12.70
2018,09,19,11,33,12.70
2018,09,19,11,34,12.60
2018,09,19,11,35,12.60
2018,09,19,11,36,12.50
2018,09,19,11,37,12.50
2018,09,19,11,38,12.50
2018,09,19,11,39,12.50
2018,09,19,11,40,12.60
2018,09,19,11,41,12.60
2018,09,19,11,42,12.60
2018,09,19,11,43,12.60
2018,09,19,11,44,12.50
2018,09,19,11,45,12.40
2018,09,19,11,46,12.30
2018,09,19,11,47,12.10
2018,09,19,11,48,12.10
2018,09,19,11,49,12.10
2018,09,19,11,50,12.20
2018,09,19,11,51,12.30
2018,09,19,11,52,12.30
2018,09,19,11,53,12.40
2018,09,19,11,54,12.30
2018,09,19,11,55,12.30
2018,09,19,11,56,12.20
2018,09,19,11,57,12.20
2018,09,19,11,58,12.20
2018,09,19,11,59,12.30
2018,09,19,12,00,12.30
2018,09,19,12,01,12.30
2018,09,19,12,02,12.30
2018,09,19,12,03,12.30
2018,09,19,12,04,12.40
2018,09,19,12,05,12.40
2018,09,19,12,06,12.30
2018,09,19,12,07,12.30
2018,09,19,12,08,12.30
2018,09,19,12,09,12.30
2018,09,19,12,10,12.30
2018,09,19,12,11,12.30
2018,09,19,12,12,12.20
2018,09,19,12,13,12.20
2018,09,19,12,14,12.20
2018,09,19,12,15,12.20
2018,09,19,12,16,12.20
2018,09,19,12,17,12.20
2018,09,19,12,18,12.20
2018,09,19,12,19,12.10
2018,09,19,12,20,12.00
2018,09,19,12,21,12.00
2018,09,19,12,22,12.00
2018,09,19,12,23,12.00
2018,09,19,12,24,11.90
2018,09,19,12,25,12.00
2018,09,19,12,26,12.00
2018,09,19,12,27,12.10
2018,09,19,12,28,12.10
2018,09,19,12,29,12.10
2018,09,19,12,30,12.10
2018,09,19,12,31,12.10
2018,09,19,12,32,12.20
2018,09,19,12,33,12.20
2018,09,19,12,34,12.10
2018,09,19,12,35,12.10
2018,09,19,12,36,12.10
2018,09,19,12,37,12.10
2018,09,19,12,38,12.10
2018,09,19,12,39,12.10
2018,09,19,12,40,12.10
2018,09,19,12,41,12.10
2018,09,19,12,42,12.10
2018,09,19,12,43,12.10
2018,09,19,12,44,12.10
2018,09,19,12,45,12.00
2018,09,19,12,46,12.00
2018,09,19,12,47,12.00
2018,09,19,12,48,12.00
2018,09,19,12,49,12.00
2018,09,19,12,50,12.00
2018,09,19,12,51,12.10
2018,09,19,12,52,12.20
2018,09,19,12,53,12.20
2018,09,19,12,54,12.20
2018,09,19,12,55,12.20
2018,09,19,12,56,12.20
2018,09,19,12,57,12.20
2018,09,19,12,58,12.20
2018,09,19,12,59,12.10
2018,09,19,13,00,12.00
2018,09,19,13,01,12.00
2018,09,19,13,02,11.90
2018,09,19,13,03,11.90
2018,09,19,13,04,11.90
2018,09,19,13,05,12.00
2018,09,19,13,06,12.10
2018,09,19,13,07,12.20
2018,09,19,13,08,12.40
2018,09,19,13,09,12.50
2018,09,19,13,10,12.50
2018,09,19,13,11,12.60
2018,09,19,13,12,12.60
2018,09,19,13,13,12.60
2018,09,19,13,14,12.60
2018,09,19,13,15,12.50
2018,09,19,13,16,12.50
2018,09,19,13,17,12.50
2018,09,19,13,18,12.50
2018,09,19,13,19,12.60
2018,09,19,13,20,12.60
2018,09,19,13,21,12.60
2018,09,19,13,22,12.60
2018,09,19,13,23,12.60
2018,09,19,13,24,12.70
2018,09,19,13,25,12.80
2018,09,19,13,26,12.90
2018,09,19,13,27,12.90
2018,09,19,13,28,13.00
2018,09,19,13,29,13.00
2018,09,19,13,30,12.90
2018,09,19,13,31,13.00
2018,09,19,13,32,13.10
2018,09,19,13,33,13.10
2018,09,19,13,34,13.20
2018,09,19,13,35,13.20
2018,09,19,13,36,13.30
2018,09,19,13,37,13.20
2018,09,19,13,38,13.10
2018,09,19,13,39,13.00
2018,09,19,13,40,12.90
2018,09,19,13,41,12.90
2018,09,19,13,42,12.80
2018,09,19,13,43,12.80
2018,09,19,13,44,12.70
2018,09,19,13,45,12.70
2018,09,19,13,46,12.70
2018,09,19,13,47,12.80
2018,09,19,13,48,12.80
2018,09,19,13,49,12.80
2018,09,19,13,50,12.80
2018,09,19,13,51,12.80
2018,09,19,13,52,12.80
2018,09,19,13,53,12.90
2018,09,19,13,54,13.00
2018,09,19,13,55,13.00
2018,09,19,13,56,13.10
2018,09,19,13,57,13.20
2018,09,19,13,58,13.30
2018,09,19,13,59,13.40
2018,09,19,14,00,13.50
2018,09,19,14,01,13.50
2018,09,19,14,02,13.60
2018,09,19,14,03,13.70
2018,09,19,14,04,13.90
2018,09,19,14,05,14.10
2018,09,19,14,06,14.30
2018,09,19,14,07,14.50
2018,09,19,14,08,14.70
2018,09,19,14,09,14.90
2018,09,19,14,10,15.20
2018,09,19,14,11,15.40
2018,09,19,14,12,15.70
2018,09,19,14,13,15.90
2018,09,19,14,14,16.10
2018,09,19,14,15,16.20
2018,09,19,14,16,16.30
2018,09,19,14,17,16.40
2018,09,19,14,18,16.60
2018,09,19,14,19,16.70
2018,09,19,14,20,16.80
2018,09,19,14,21,16.90
2018,09,19,14,22,16.90
2018,09,19,14,23,17.00
2018,09,19,14,24,17.10
2018,09,19,14,25,17.10
2018,09,19,14,26,17.10
2018,09,19,14,27,17.10
2018,09,19,14,28,17.10
2018,09,19,14,29,17.20
2018,09,19,14,30,17.20
2018,09,19,14,31,17.10
2018,09,19,14,32,17.10
2018,09,19,14,33,17.00
2018,09,19,14,34,17.00
2018,09,19,14,35,16.90
2018,09,19,14,36,16.90
2018,09,19,14,37,16.80
2018,09,19,14,38,16.80
2018,09,19,14,39,16.70
2018,09,19,14,40,16.70
2018,09,19,14,41,16.70
2018,09,19,14,42,16.60
2018,09,19,14,43,16.60
2018,09,19,14,44,16.60
2018,09,19,14,45,16.60
2018,09,19,14,46,16.60
2018,09,19,14,47,16.60
2018,09,19,14,48,16.60
2018,09,19,14,49,16.50
2018,09,19,14,50,16.50
2018,09,19,14,51,16.40
2018,09,19,14,52,16.40
2018,09,19,14,53,16.30
2018,09,19,14,54,16.30
2018,09,19,14,55,16.30
2018,09,19,14,56,16.30
2018,09,19,14,57,16.30
2018,09,19,14,58,16.20
2018,09,19,14,59,16.20
2018,09,19,15,00,16.20
2018,09,19,15,01,16.10
2018,09,19,15,02,16.10
2018,09,19,15,03,16.10
2018,09,19,15,04,16.10
2018,09,19,15,05,16.10
2018,09,19,15,06,16.10
2018,09,19,15,07,16.10
2018,09,19,15,08,16.10
2018,09,19,15,09,16.10
2018,09,19,15,10,16.10
2018,09,19,15,11,16.10
2018,09,19,15,12,16.10
2018,09,19,15,13,16.10
2018,09,19,15,14,16.10
2018,09,19,15,15,16.10
2018,09,19,15,16,16.10
2018,09,19,15,17,16.00
2018,09,19,15,18,16.00
2018,09,19,15,19,16.00
2018,09,19,15,20,15.90
2018,09,19,15,21,15.90
2018,09,19,15,22,15.90
2018,09,19,15,23,15.90
2018,09,19,15,24,15.90
2018,09,19,15,25,15.90
2018,09,19,15,26,15.90
2018,09,19,15,27,15.90
2018,09,19,15,28,16.00
2018,09,19,15,29,16.00
2018,09,19,15,30,16.10
2018,09,19,15,31,16.20
2018,09,19,15,32,16.20
2018,09,19,15,33,16.30
2018,09,19,15,34,16.30
2018,09,19,15,35,16.40
2018,09,19,15,36,16.50
2018,09,19,15,37,16.50
2018,09,19,15,38,16.60
2018,09,19,15,39,16.70
2018,09,19,15,40,16.70
2018,09,19,15,41,16.70
2018,09,19,15,42,16.80
2018,09,19,15,43,16.80
2018,09,19,15,44,16.80
2018,09,19,15,45,16.80
2018,09,19,15,46,16.80
2018,09,19,15,47,16.80
2018,09,19,15,48,16.80
2018,09,19,15,49,16.80
2018,09,19,15,50,16.80
2018,09,19,15,51,16.80
2018,09,19,15,52,16.80
2018,09,19,15,53,16.80
2018,09,19,15,54,16.80
2018,09,19,15,55,16.80
2018,09,19,15,56,16.80
2018,09,19,15,57,16.70
2018,09,19,15,58,16.70
2018,09,19,15,59,16.70
2018,09,19,16,00,16.70
2018,09,19,16,01,16.70
2018,09,19,16,02,16.70
2018,09,19,16,03,16.70
2018,09,19,16,04,16.60
2018,09,19,16,05,16.60
2018,09,19,16,06,16.50
2018,09,19,16,07,16.50
2018,09,19,16,08,16.40
2018,09,19,16,09,16.40
2018,09,19,16,10,16.40
2018,09,19,16,11,16.40
2018,09,19,16,12,16.40
2018,09,19,16,13,16.40
2018,09,19,16,14,16.40
2018,09,19,16,15,16.40
2018,09,19,16,16,16.40
2018,09,19,16,17,16.40
2018,09,19,16,18,16.40
2018,09,19,16,19,16.40
2018,09,19,16,20,16.40
2018,09,19,16,21,16.40
2018,09,19,16,22,16.40
2018,09,19,16,23,16.40
2018,09,19,16,24,16.30
2018,09,19,16,25,16.30
2018,09,19,16,26,16.30
2018,09,19,16,27,16.30
2018,09,19,16,28,16.20
2018,09,19,16,29,16.20
2018,09,19,16,30,16.20
2018,09,19,16,31,16.10
2018,09,19,16,32,16.10
2018,09,19,16,33,16.10
2018,09,19,16,34,16.10
2018,09,19,16,35,16.10
2018,09,19,16,36,16.10
2018,09,19,16,37,16.10
2018,09,19,16,38,16.00
2018,09,19,16,39,16.00
2018,09,19,16,40,16.10
2018,09,19,16,41,16.00
2018,09,19,16,42,16.00
2018,09,19,16,43,16.00
2018,09,19,16,44,15.90
2018,09,19,16,45,15.90
2018,09,19,16,46,15.90
2018,09,19,16,47,15.90
2018,09,19,16,48,15.90
2018,09,19,16,49,15.90
2018,09,19,16,50,15.90
2018,09,19,16,51,15.90
2018,09,19,16,52,15.90
2018,09,19,16,53,15.90
2018,09,19,16,54,15.90
2018,09,19,16,55,15.90
2018,09,19,16,56,15.90
2018,09,19,16,57,15.90
2018,09,19,16,58,15.90
2018,09,19,16,59,16.00
2018,09,19,17,00,16.00
2018,09,19,17,01,16.00
2018,09,19,17,02,16.00
2018,09,19,17,03,16.00
2018,09,19,17,04,16.00
2018,09,19,17,05,16.00
2018,09,19,17,06,16.00
2018,09,19,17,07,16.00
2018,09,19,17,08,16.10
2018,09,19,17,09,16.10
2018,09,19,17,10,16.10
2018,09,19,17,11,16.10
2018,09,19,17,12,16.10
2018,09,19,17,13,16.10
2018,09,19,17,14,16.10
2018,09,19,17,15,16.10
2018,09,19,17,16,16.10
2018,09,19,17,17,16.10
2018,09,19,17,18,16.10
2018,09,19,17,19,16.20
2018,09,19,17,20,16.20
2018,09,19,17,21,16.20
2018,09,19,17,22,16.20
2018,09,19,17,23,16.20
2018,09,19,17,24,16.20
2018,09,19,17,25,16.20
2018,09,19,17,26,16.20
2018,09,19,17,27,16.20
2018,09,19,17,28,16.20
2018,09,19,17,29,16.30
2018,09,19,17,30,16.30
2018,09,19,17,31,16.30
2018,09,19,17,32,16.30
2018,09,19,17,33,16.30
2018,09,19,17,34,16.30
2018,09,19,17,35,16.40
2018,09,19,17,36,16.50